Tracking 31876 objects as of 21-Oct-2025
HD Live streaming from Space Station
objects crossing your sky now

QUIKSCAT

Track QUIKSCAT now!
10-day predictions
QUIKSCAT is classified as:


NORAD ID: 25789
Int'l Code: 1999-034A
Perigee: 661.0 km
Apogee: 795.0 km
Inclination: 98.3 °
Period: 99.2 minutes
Semi major axis: 7098 km
RCS: 2.9895 m2 (large)
Launch date: June 20, 1999
Source: United States (US)
Launch site: AIR FORCE WESTERN TEST RANGE (AFWTR)

Detailed snapshots of the winds swirling above the world's oceans.
Your satellite tracking list
Your tracking list is empty




NASA's NSSDC Master Catalog

Two Line Element Set (TLE):
1 25789U 99034A   25293.90521553  .00000843  00000-0  21102-3 0  9991
2 25789  98.2976 172.7970 0094403 297.4073  61.7542 14.51475965377806
Source of the keplerian elements: AFSPC